Location: Unspecified
(0.0000°N, 0.0000°E)
Time: 17:28:35
(UTC+00:00)

deb Briz - Pass Details

Date: 19 February 2026
Orbit: 1598 x 2046 km, 64.9° (Epoch: 8 March)

Event Time Altitude Azimuth Distance (km) Brightness Sun altitude
Rises 03:26:43 0° 182° (S) 5,279 ? -40.8°
Reaches altitude 10° 03:30:39 10° 172° (S) 4,214 ? -39.8°
Maximum altitude 03:39:39 32° 113° (ESE) 2,699 ? -37.7°
Drops below altitude 10° 03:47:59 10° 54° (NE) 3,916 ? -35.7°
Sets 03:51:25 0° 45° (NE) 4,859 ? -34.8°
